Location: Marysville Observatory
(48.1092°N, 122.1645°W)
Time: 15:56:21
(UTC-07:00)

Amateur Radio Satellites - All Passes

Search period start: 24 April 2017 15:26
Search period end: 25 April 2017 15:26
Location: Marysville Observatory, 48.1092°N, 122.1645°W

Satellite Date Start Highest point End Downlink Frequencies (MHz)
Time Altitude Azimuth
ISS 24 Apr 15:26:23 15:29:37 64° 208° (SSW) 15:32:51 437.550
VELOX 1 24 Apr 15:34:30 15:35:31 11° 306° (NW) 15:36:33 145.980
Oscar 19 24 Apr 15:36:02 15:36:59 10° 275° (W) 15:37:56 437.125/150
YUBILEINY 24 Apr 15:40:36 15:49:13 56° 73° (ENE) 15:57:48 435.215
SO-50 24 Apr 15:43:57 15:48:29 72° 50° (NE) 15:52:58 436.795
BEESAT 24 Apr 16:00:01 16:04:42 54° 101° (E) 16:09:22 436.000
UKube-1 24 Apr 16:04:59 16:07:33 16° 301° (WNW) 16:10:06 .
MOZHAYETS 4 24 Apr 16:15:00 16:19:21 40° 98° (E) 16:23:40
AO-85 24 Apr 16:19:31 16:21:49 15° 331° (NNW) 16:24:06 145.980
BEESAT 2 24 Apr 16:30:21 16:34:17 60° 311° (NW) 16:38:19 435.950
RS-15 24 Apr 16:33:21 16:45:47 78° 48° (NE) 16:57:39 29.354- 29.394
BEESAT 3 24 Apr 16:37:49 16:41:14 27° 321° (NW) 16:44:42 437.485
ITUPSAT 1 24 Apr 16:38:59 16:43:45 69° 288° (WNW) 16:48:30 437.325
KKS-1 24 Apr 16:45:49 16:48:34 16° 90° (E) 16:51:16 437.445
ITAMSAT 1 24 Apr 16:53:13 16:56:58 20° 269° (W) 17:00:44 435.822/435.867
HO-68 24 Apr 16:55:34 16:57:14 11° 38° (NE) 16:58:53 435.675
CUBESAT XI-V 24 Apr 16:59:53 17:03:38 23° 92° (E) 17:07:21 437.345
AO-7 24 Apr 17:00:18 17:07:32 33° 265° (W) 17:14:48 .
ISS 24 Apr 17:04:10 17:05:34 12° 225° (SW) 17:06:57 437.550
XW-2F 24 Apr 17:21:00 17:23:30 17° 64° (ENE) 17:26:01 145.980 - 146.000
STARS 24 Apr 17:24:08 17:27:03 17° 91° (E) 17:29:56 437.465
SO-50 24 Apr 17:25:30 17:28:25 17° 248° (WSW) 17:31:19 436.795
DOVE 4 24 Apr 17:32:08 17:37:10 46° 69° (ENE) 17:42:09 437.250
YUBILEINY 24 Apr 17:37:53 17:45:43 39° 275° (W) 17:53:35 435.215
BEESAT 24 Apr 17:38:30 17:42:08 22° 299° (WNW) 17:45:45 436.000
NUDT-PHONESAT 24 Apr 17:39:16 17:42:08 22° 66° (ENE) 17:45:00 437.300
CUTE-I 24 Apr 17:42:17 17:47:11 38° 65° (ENE) 17:52:05 437.470
MOZHAYETS 4 24 Apr 17:52:30 17:56:21 27° 296° (WNW) 18:00:12
XW-2D 24 Apr 18:07:40 18:11:21 58° 73° (ENE) 18:15:03 145.860 - 145.880
BEESAT 2 24 Apr 18:10:39 18:12:54 14° 333° (NNW) 18:15:09 435.950
XW-2B 24 Apr 18:14:30 18:18:13 67° 74° (ENE) 18:21:57 145.730 - 145.750
ITUPSAT 1 24 Apr 18:19:15 18:20:43 11° 307° (NW) 18:22:11 437.325
CUTE 1.7 + AOD 2 24 Apr 18:19:29 18:21:42 14° 59° (ENE) 18:23:54 437.475
KKS-1 24 Apr 18:21:08 18:25:32 62° 288° (WNW) 18:29:54 437.445
LilacSat-2 24 Apr 18:22:43 18:26:28 89° 79° (E) 18:30:16 437.200
XW-2C 24 Apr 18:26:16 18:30:01 87° 257° (WSW) 18:33:47 145.795 - 145.815
XW-2A 24 Apr 18:26:59 18:28:27 12° 62° (ENE) 18:29:56 145.665 - 145.685
KAITUO 1B 24 Apr 18:29:41 18:33:22 82° 75° (ENE) 18:37:06 145.475/437.950
HO-68 24 Apr 18:36:32 18:43:05 41° 60° (ENE) 18:49:40 435.675
CUBESAT XI-V 24 Apr 18:36:42 18:41:14 47° 290° (WNW) 18:45:45 437.345
SEEDS 24 Apr 18:43:29 18:46:03 16° 61° (ENE) 18:48:39 437.485
RS-15 24 Apr 18:46:37 18:57:19 38° 254° (WSW) 19:07:37 29.354- 29.394
XW-2F 24 Apr 18:53:48 18:57:21 43° 261° (W) 19:00:57 145.980 - 146.000
STARS 24 Apr 18:59:27 19:03:44 55° 289° (WNW) 19:08:00 437.465
CUBEBUG 2 24 Apr 19:00:22 19:03:17 18° 62° (ENE) 19:06:09 437.445
DOVE 4 24 Apr 19:10:25 19:14:59 29° 267° (W) 19:19:30 437.250
NUDT-PHONESAT 24 Apr 19:12:37 19:15:54 31° 264° (W) 19:19:13 437.300
CUTE-I 24 Apr 19:22:23 19:27:16 35° 264° (W) 19:32:09 437.470
XW-2D 24 Apr 19:44:17 19:45:55 12° 271° (W) 19:47:34 145.860 - 145.880
AO-85 24 Apr 19:45:08 19:46:22 11° 23° (NNE) 19:47:36 145.980
XW-2B 24 Apr 19:51:54 19:52:52 11° 272° (W) 19:53:50 145.730 - 145.750
ZACube-1 24 Apr 19:52:17 19:55:27 21° 64° (ENE) 19:58:35 437.345
CUTE 1.7 + AOD 2 24 Apr 19:52:45 19:56:57 75° 257° (WSW) 20:01:13 437.475
STRAND 1 24 Apr 19:54:24 19:58:50 29° 94° (E) 20:03:14 437.568
AAUSAT CUBESAT 2 24 Apr 19:56:34 20:00:27 41° 70° (ENE) 20:04:23 437.432
XW-2A 24 Apr 19:57:32 20:00:49 51° 260° (W) 20:04:07 145.665 - 145.685
AO-73 24 Apr 20:00:22 20:03:38 23° 65° (ENE) 20:06:54 145.935
SEEDS 24 Apr 20:17:09 20:21:17 62° 259° (WSW) 20:25:29 437.485
Oscar 11 24 Apr 20:18:09 20:21:52 30° 66° (ENE) 20:25:38 .
O/OREOS (USA 219) 24 Apr 20:18:40 20:23:08 46° 58° (ENE) 20:27:32 437.305
HO-68 24 Apr 20:23:51 20:30:43 49° 260° (W) 20:37:39 435.675
UWE-3 24 Apr 20:26:42 20:30:58 75° 73° (ENE) 20:35:10 435.000/436.395/437.385
CUBEBUG 2 24 Apr 20:35:14 20:39:32 56° 259° (W) 20:43:45 437.445
OBJECT BX 24 Apr 20:42:44 20:43:55 11° 60° (ENE) 20:45:05 145.990 - 145.960
M-CUBED/EXP-1 PRIME 24 Apr 20:48:09 20:52:29 64° 107° (ESE) 20:56:27 437.505
DELFI C3 24 Apr 21:01:06 21:04:22 24° 66° (ENE) 21:07:38 145.870
NO-84 24 Apr 21:18:53 21:22:20 52° 143° (SE) 21:25:30 435.350 FM
AO-85 24 Apr 21:24:01 21:27:46 41° 45° (NE) 21:31:38 145.980
ZACube-1 24 Apr 21:27:29 21:31:30 43° 262° (W) 21:35:29 437.345
BEESAT 2 24 Apr 21:30:55 21:32:09 11° 21° (NNE) 21:33:23 435.950
AAUSAT CUBESAT 2 24 Apr 21:32:56 21:36:06 21° 268° (W) 21:39:18 437.432
STRAND 1 24 Apr 21:33:21 21:38:08 42° 293° (WNW) 21:42:56 437.568
AO-73 24 Apr 21:35:47 21:39:42 39° 263° (W) 21:43:36 145.935
BEESAT 3 24 Apr 21:36:11 21:38:59 18° 32° (NNE) 21:41:45 437.485
PRISM 24 Apr 21:48:20 21:50:24 13° 89° (E) 21:52:26 437.425
LO-87 24 Apr 21:53:51 21:54:54 11° 60° (ENE) 21:55:57 145.935 - 145.965
Oscar 11 24 Apr 21:54:08 21:57:57 31° 265° (W) 22:01:49 .
O/OREOS (USA 219) 24 Apr 21:58:38 22:02:15 23° 257° (WSW) 22:05:50 437.305
UWE-3 24 Apr 22:06:16 22:07:56 12° 272° (W) 22:09:35 435.000/436.395/437.385
OBJECT BX 24 Apr 22:13:27 22:17:04 71° 258° (WSW) 22:20:43 145.990 - 145.960
M-CUBED/EXP-1 PRIME 24 Apr 22:23:30 22:26:24 18° 307° (NW) 22:29:11 437.505
DELFI C3 24 Apr 22:35:23 22:39:00 33° 264° (W) 22:42:41 145.870
FO-29 24 Apr 22:50:30 22:55:02 30° 95° (E) 22:59:42 435.910
TIGRISAT 24 Apr 22:55:56 22:59:57 39° 98° (E) 23:03:59 435.000
NO-84 24 Apr 22:56:52 22:59:58 34° 340° (NNW) 23:02:51 435.350 FM
ESTCUBE 1 24 Apr 22:57:37 23:01:41 34° 67° (ENE) 23:05:47 437.505/2401.250
AO-85 24 Apr 23:04:43 23:07:59 25° 243° (WSW) 23:11:21 145.980
SPROUT 24 Apr 23:04:46 23:06:35 13° 58° (ENE) 23:08:25 437.525
BEESAT 2 24 Apr 23:07:14 23:11:03 37° 44° (NE) 23:14:50 435.950
BEESAT 3 24 Apr 23:13:06 23:17:09 88° 53° (NE) 23:21:10 437.485
UNISAT 6 24 Apr 23:16:23 23:20:40 69° 102° (ESE) 23:24:57 437.425
VELOX 1 24 Apr 23:20:51 23:24:06 20° 61° (ENE) 23:27:21 145.980
PRISM 24 Apr 23:21:58 23:26:08 67° 287° (WNW) 23:30:14 437.425
LO-87 24 Apr 23:24:10 23:27:48 74° 258° (WSW) 23:31:28 145.935 - 145.965
AIST 2D 24 Apr 23:41:22 23:43:45 17° 92° (E) 23:46:07 435.315
UKube-1 24 Apr 23:52:13 23:54:08 13° 57° (ENE) 23:56:03 .
POLYITAN 1 24 Apr 23:54:36 23:57:01 15° 90° (E) 23:59:26 437.675
QB50P2 25 Apr 00:00:40 00:03:38 18° 92° (E) 00:06:36 145.880/145.840
50 SAT 25 Apr 00:12:09 00:15:13 29° 68° (ENE) 00:18:18 437.505
DX 1 25 Apr 00:18:42 00:22:30 29° 65° (ENE) 00:26:19 434.975-435.025
NANOSAT C BR1 25 Apr 00:24:14 00:27:49 27° 95° (E) 00:31:22 145.865
TIGRISAT 25 Apr 00:33:03 00:36:28 24° 296° (WNW) 00:39:53 435.000
ESTCUBE 1 25 Apr 00:34:36 00:38:31 29° 265° (W) 00:42:29 437.505/2401.250
FO-29 25 Apr 00:35:30 00:40:19 40° 294° (WNW) 00:45:16 435.910
NO-84 25 Apr 00:35:34 00:38:06 22° 1° (N) 00:40:30 435.350 FM
SPROUT 25 Apr 00:37:34 00:41:52 87° 257° (WSW) 00:46:10 437.525
BEESAT 2 25 Apr 00:45:09 00:48:44 30° 242° (WSW) 00:52:17 435.950
EO-79 25 Apr 00:50:22 00:54:30 54° 100° (E) 00:58:37 145.935-145.965
BEESAT 3 25 Apr 00:52:44 00:54:06 11° 251° (WSW) 00:55:27 437.485
UNISAT 6 25 Apr 00:54:26 00:56:53 15° 300° (WNW) 00:59:22 437.425
DUCHIFAT 1 25 Apr 00:54:50 00:58:55 49° 100° (E) 01:02:57 145.980
VELOX 1 25 Apr 00:55:49 01:00:11 54° 260° (W) 01:04:35 145.980
AIST 2D 25 Apr 01:13:51 01:17:06 36° 289° (WNW) 01:20:21 435.315
UKube-1 25 Apr 01:25:10 01:29:30 89° 256° (WSW) 01:33:52 .
POLYITAN 1 25 Apr 01:29:03 01:33:12 60° 287° (WNW) 01:37:20 437.675
BEESAT 25 Apr 01:34:45 01:37:19 15° 56° (NE) 01:39:54 436.000
QB50P2 25 Apr 01:35:38 01:39:41 48° 289° (WNW) 01:43:43 145.880/145.840
50 SAT 25 Apr 01:45:30 01:48:12 21° 266° (W) 01:50:54 437.505
Gurwin Techsat 1B 25 Apr 01:46:50 01:49:42 15° 87° (E) 01:52:34 435.225
DX 1 25 Apr 01:54:38 01:58:37 33° 263° (W) 02:02:37 434.975-435.025
Oscar 19 25 Apr 01:59:45 02:04:20 30° 95° (E) 02:08:52 437.125/150
NANOSAT C BR1 25 Apr 01:59:48 02:03:34 32° 293° (WNW) 02:07:18 145.865
BUGSAT 1 25 Apr 02:04:43 02:08:46 88° 278° (W) 02:12:46 437.445
ITUPSAT 1 25 Apr 02:12:11 02:16:14 29° 64° (ENE) 02:20:19 437.325
NO-84 25 Apr 02:13:17 02:16:10 41° 23° (NNE) 02:18:55 435.350 FM
EO-79 25 Apr 02:27:03 02:29:54 18° 299° (WNW) 02:32:44 145.935-145.965
PCSat 25 Apr 02:29:39 02:33:50 23° 108° (ESE) 02:38:02 145.827
DUCHIFAT 1 25 Apr 02:31:18 02:34:15 19° 298° (WNW) 02:37:12 145.980
YUBILEINY 25 Apr 02:57:18 02:59:34 11° 68° (ENE) 03:01:49 435.215
AO-7 25 Apr 03:05:24 03:10:01 16° 85° (E) 03:14:34 .
UKube-1 25 Apr 03:05:43 03:06:12 10° 273° (W) 03:06:40 .
BEESAT 25 Apr 03:09:40 03:14:26 88° 260° (W) 03:19:13 436.000
MOZHAYETS 4 25 Apr 03:20:03 03:24:29 57° 72° (ENE) 03:28:58
ITAMSAT 1 25 Apr 03:22:16 03:25:30 16° 89° (E) 03:28:44 435.822/435.867
Gurwin Techsat 1B 25 Apr 03:25:01 03:30:22 87° 289° (WNW) 03:35:41 435.225
Oscar 19 25 Apr 03:38:52 03:43:46 42° 293° (WNW) 03:48:38 437.125/150
BUGSAT 1 25 Apr 03:42:29 03:43:27 11° 303° (WNW) 03:44:25 437.445
KKS-1 25 Apr 03:46:51 03:50:25 24° 63° (ENE) 03:54:01 437.445
ITUPSAT 1 25 Apr 03:49:29 03:53:56 39° 262° (W) 03:58:25 437.325
NO-84 25 Apr 03:51:02 03:53:33 27° 223° (SW) 03:56:01 435.350 FM
CUBESAT XI-V 25 Apr 04:06:21 04:10:28 33° 66° (ENE) 04:14:40 437.345
PCSat 25 Apr 04:11:24 04:16:46 65° 308° (NW) 04:22:13 145.827
STARS 25 Apr 04:23:44 04:27:21 25° 64° (ENE) 04:30:59 437.465
YUBILEINY 25 Apr 04:45:52 04:54:14 56° 90° (E) 05:02:39 435.215
BEESAT 25 Apr 04:51:17 04:52:55 12° 273° (W) 04:54:33 436.000
AO-7 25 Apr 04:55:58 05:04:18 70° 106° (ESE) 05:12:36 .
MOZHAYETS 4 25 Apr 04:58:54 05:02:01 18° 270° (W) 05:05:09
ITAMSAT 1 25 Apr 05:00:22 05:05:33 76° 287° (WNW) 05:10:43 435.822/435.867
Gurwin Techsat 1B 25 Apr 05:06:26 05:09:35 16° 305° (NW) 05:12:43 435.225
KKS-1 25 Apr 05:22:29 05:26:46 43° 261° (W) 05:31:04 437.445
STRAND 1 25 Apr 05:39:20 05:40:24 11° 51° (NE) 05:41:28 437.568
CUBESAT XI-V 25 Apr 05:43:40 05:47:50 32° 265° (W) 05:52:03 437.345
PCSat 25 Apr 05:57:28 06:01:15 19° 330° (NNW) 06:05:01 145.827
CUTE-I 25 Apr 05:58:37 05:59:17 10° 84° (E) 05:59:58 437.470
STARS 25 Apr 05:59:22 06:03:31 40° 262° (W) 06:07:42 437.465
M-CUBED/EXP-1 PRIME 25 Apr 06:03:19 06:06:51 22° 56° (NE) 06:10:24 437.505
XW-2F 25 Apr 06:23:12 06:25:26 15° 91° (E) 06:27:40 145.980 - 146.000
NUDT-PHONESAT 25 Apr 06:39:41 06:42:20 18° 92° (E) 06:44:58 437.300
ITAMSAT 1 25 Apr 06:41:41 06:44:10 14° 307° (NW) 06:46:40 435.822/435.867
YUBILEINY 25 Apr 06:43:23 06:51:23 39° 293° (WNW) 06:59:27 435.215
AO-7 25 Apr 06:49:20 06:56:33 35° 307° (NW) 07:03:46 .
RS-15 25 Apr 07:02:04 07:12:08 33° 104° (ESE) 07:22:24 29.354- 29.394
DOVE 4 25 Apr 07:05:11 07:09:57 69° 101° (E) 07:14:23 437.250
XW-2D 25 Apr 07:10:35 07:14:19 52° 100° (E) 07:18:03 145.860 - 145.880
STRAND 1 25 Apr 07:13:33 07:18:33 59° 70° (ENE) 07:23:35 437.568
XW-2B 25 Apr 07:17:27 07:21:14 61° 101° (ESE) 07:25:00 145.730 - 145.750
LilacSat-2 25 Apr 07:26:23 07:30:14 82° 101° (E) 07:34:05 437.200
XW-2C 25 Apr 07:29:15 07:33:04 85° 101° (E) 07:36:54 145.795 - 145.815
KAITUO 1B 25 Apr 07:31:08 07:34:54 72° 103° (ESE) 07:38:40 145.475/437.950
CUTE-I 25 Apr 07:34:58 07:40:19 71° 104° (ESE) 07:45:36 437.470
CUTE 1.7 + AOD 2 25 Apr 07:35:05 07:37:39 15° 89° (E) 07:40:13 437.475
M-CUBED/EXP-1 PRIME 25 Apr 07:36:18 07:40:51 61° 253° (WSW) 07:45:31 437.505
SO-50 25 Apr 07:41:12 07:45:45 63° 124° (SE) 07:50:17 436.795
PCSat 25 Apr 07:46:33 07:46:59 10° 356° (N) 07:47:25 145.827
HO-68 25 Apr 07:47:30 07:53:38 29° 93° (E) 07:59:43 435.675
XW-2F 25 Apr 07:56:11 07:59:51 49° 288° (WNW) 08:03:32 145.980 - 146.000
SEEDS 25 Apr 07:58:05 08:00:58 18° 91° (E) 08:03:51 437.485
NUDT-PHONESAT 25 Apr 08:12:56 08:16:24 37° 290° (WNW) 08:19:51 437.300
UWE-3 25 Apr 08:14:39 08:15:52 11° 87° (E) 08:17:05 435.000/436.395/437.385
CUBEBUG 2 25 Apr 08:22:41 08:25:55 21° 93° (E) 08:29:09 437.445
PRISM 25 Apr 08:40:46 08:43:27 17° 60° (ENE) 08:46:10 437.425
DOVE 4 25 Apr 08:44:01 08:47:03 17° 302° (WNW) 08:49:58 437.250
AO-7 25 Apr 08:44:37 08:46:51 11° 332° (NNW) 08:49:04 .
UNISAT 6 25 Apr 08:44:51 08:46:40 12° 58° (ENE) 08:48:28 437.425
XW-2D 25 Apr 08:45:51 08:48:08 15° 298° (WNW) 08:50:25 145.860 - 145.880
XW-2A 25 Apr 08:48:22 08:51:44 84° 284° (WNW) 08:55:05 145.665 - 145.685
XW-2B 25 Apr 08:53:00 08:54:58 14° 299° (WNW) 08:56:57 145.730 - 145.750
STRAND 1 25 Apr 08:54:20 08:58:08 21° 269° (W) 09:01:56 437.568
LilacSat-2 25 Apr 09:02:53 09:03:56 11° 301° (WNW) 09:05:00 437.200
XW-2C 25 Apr 09:05:54 09:06:40 11° 301° (WNW) 09:07:27 145.795 - 145.815
KAITUO 1B 25 Apr 09:06:56 09:08:23 12° 300° (WNW) 09:09:51 145.475/437.950
FO-29 25 Apr 09:07:16 09:11:54 23° 60° (ENE) 09:16:12 435.910
CUTE 1.7 + AOD 2 25 Apr 09:09:38 09:13:53 60° 287° (WNW) 09:18:06 437.475
AAUSAT CUBESAT 2 25 Apr 09:10:05 09:14:09 46° 99° (E) 09:18:12 437.432
RS-15 25 Apr 09:11:08 09:23:20 86° 308° (NW) 09:35:49 29.354- 29.394
ZACube-1 25 Apr 09:11:57 09:15:29 26° 94° (E) 09:19:04 437.345
CUTE-I 25 Apr 09:16:00 09:19:50 21° 302° (WNW) 09:23:40 437.470
AO-73 25 Apr 09:19:43 09:23:22 28° 95° (E) 09:27:03 145.935
SO-50 25 Apr 09:22:42 09:26:34 26° 324° (NW) 09:30:26 436.795
PCSat 25 Apr 09:29:53 09:32:55 15° 23° (NNE) 09:35:58 145.827
SEEDS 25 Apr 09:32:48 09:36:58 52° 288° (WNW) 09:41:06 437.485
HO-68 25 Apr 09:34:44 09:41:51 65° 293° (WNW) 09:48:57 435.675
Tancredo 1 25 Apr 09:35:16 09:38:01 29° 144° (SE) 09:40:47 437.200
Oscar 11 25 Apr 09:37:07 09:41:09 36° 97° (E) 09:45:10 .
ISS 25 Apr 09:44:40 09:47:33 29° 144° (SE) 09:50:26 437.550
UWE-3 25 Apr 09:48:42 09:52:53 79° 284° (WNW) 09:57:06 435.000/436.395/437.385
TIGRISAT 25 Apr 09:57:44 10:02:00 53° 72° (ENE) 10:06:12 435.000
CUBEBUG 2 25 Apr 09:58:49 10:02:42 39° 290° (WNW) 10:06:36 437.445
DELFI C3 25 Apr 10:08:49 10:12:05 23° 94° (E) 10:15:20 145.870
PRISM 25 Apr 10:14:13 10:18:19 58° 259° (WSW) 10:22:28 437.425
UNISAT 6 25 Apr 10:18:21 10:22:45 89° 255° (WSW) 10:27:06 437.425
AIST 2D 25 Apr 10:20:22 10:21:45 12° 62° (ENE) 10:23:09 435.315
O/OREOS (USA 219) 25 Apr 10:35:02 10:38:50 26° 104° (ESE) 10:42:41 437.305
AAUSAT CUBESAT 2 25 Apr 10:46:14 10:49:19 20° 297° (WNW) 10:52:24 437.432
ZACube-1 25 Apr 10:48:03 10:51:50 34° 292° (WNW) 10:55:39 437.345
FO-29 25 Apr 10:50:22 10:56:39 68° 257° (WSW) 11:02:17 435.910
POLYITAN 1 25 Apr 10:50:25 10:53:23 19° 62° (ENE) 10:56:20 437.675
AO-73 25 Apr 10:55:54 10:59:36 31° 292° (WNW) 11:03:21 145.935
QB50P2 25 Apr 10:56:30 10:59:49 23° 64° (ENE) 11:03:09 145.880/145.840
SO-50 25 Apr 11:07:17 11:08:35 11° 348° (NNW) 11:09:53 436.795
Tancredo 1 25 Apr 11:10:42 11:13:47 63° 343° (NNW) 11:16:53 437.200
OBJECT BX 25 Apr 11:12:14 11:15:55 89° 256° (WSW) 11:19:34 145.990 - 145.960
PCSat 25 Apr 11:12:32 11:17:46 44° 47° (NE) 11:22:57 145.827
Oscar 11 25 Apr 11:13:31 11:17:09 26° 295° (WNW) 11:20:46 .
NANOSAT C BR1 25 Apr 11:19:27 11:23:12 32° 67° (ENE) 11:26:56 145.865
ISS 25 Apr 11:20:37 11:23:52 66° 342° (NNW) 11:27:07 437.550
HO-68 25 Apr 11:23:59 11:28:18 17° 314° (NW) 11:32:39 435.675
BUGSAT 1 25 Apr 11:24:50 11:26:39 13° 59° (ENE) 11:28:28 437.445
RS-15 25 Apr 11:26:12 11:37:43 43° 338° (NNW) 11:49:18 29.354- 29.394
UWE-3 25 Apr 11:28:10 11:28:38 10° 303° (WNW) 11:29:06 435.000/436.395/437.385
TIGRISAT 25 Apr 11:36:03 11:39:00 18° 269° (W) 11:41:56 435.000
DELFI C3 25 Apr 11:43:17 11:46:56 34° 291° (WNW) 11:50:34 145.870
Oscar 19 25 Apr 11:45:05 11:46:38 11° 51° (NE) 11:48:12 437.125/150
EO-79 25 Apr 11:45:46 11:49:56 63° 73° (ENE) 11:54:08 145.935-145.965
DUCHIFAT 1 25 Apr 11:49:37 11:53:44 58° 72° (ENE) 11:57:52 145.980
AIST 2D 25 Apr 11:51:06 11:54:31 58° 259° (W) 11:57:59 435.315
UNISAT 6 25 Apr 11:59:44 12:00:06 10° 273° (W) 12:00:28 437.425
O/OREOS (USA 219) 25 Apr 12:13:42 12:18:04 41° 303° (WNW) 12:22:27 437.305
LO-87 25 Apr 12:21:00 12:24:37 84° 103° (ESE) 12:28:10 145.935 - 145.965
SPROUT 25 Apr 12:21:26 12:23:14 12° 88° (E) 12:25:02 437.525
AO-7 25 Apr 12:22:09 12:24:30 11° 28° (NNE) 12:26:50 .
ESTCUBE 1 25 Apr 12:22:35 12:26:58 45° 99° (E) 12:31:20 437.505/2401.250
POLYITAN 1 25 Apr 12:24:43 12:28:50 51° 260° (W) 12:32:57 437.675
QB50P2 25 Apr 12:31:25 12:35:24 40° 262° (W) 12:39:25 145.880/145.840
FO-29 25 Apr 12:41:28 12:42:37 11° 274° (W) 12:43:46 435.910
VELOX 1 25 Apr 12:42:39 12:46:08 22° 93° (E) 12:49:34 145.980
Tancredo 1 25 Apr 12:47:02 12:50:00 41° 2° (N) 12:52:59 437.200
SO-50 25 Apr 12:49:35 12:51:07 11° 14° (NNE) 12:52:38 436.795
NANOSAT C BR1 25 Apr 12:55:18 12:58:55 28° 265° (W) 13:02:33 145.865
PCSat 25 Apr 12:56:09 13:01:05 36° 247° (WSW) 13:06:00 145.827
BUGSAT 1 25 Apr 12:57:17 13:01:27 81° 256° (WSW) 13:05:35 437.445
ISS 25 Apr 12:57:30 13:00:38 42° 2° (N) 13:03:46 437.550
50 SAT 25 Apr 13:05:09 13:07:42 19° 93° (E) 13:10:14 437.505
UKube-1 25 Apr 13:10:37 13:12:10 12° 88° (E) 13:13:44 .
Gurwin Techsat 1B 25 Apr 13:10:39 13:15:23 34° 64° (ENE) 13:20:08 435.225
Oscar 19 25 Apr 13:19:52 13:24:57 62° 71° (ENE) 13:30:05 437.125/150
AO-85 25 Apr 13:21:46 13:25:41 37° 120° (ESE) 13:29:25 145.980
EO-79 25 Apr 13:23:49 13:26:08 14° 271° (W) 13:28:26 145.935-145.965
DUCHIFAT 1 25 Apr 13:27:15 13:29:47 15° 270° (W) 13:32:18 145.980
DX 1 25 Apr 13:38:50 13:42:45 31° 96° (E) 13:46:38 434.975-435.025
RS-15 25 Apr 13:42:56 13:54:13 38° 11° (NNE) 14:05:16 29.354- 29.394
SPROUT 25 Apr 13:55:25 13:59:40 74° 286° (WNW) 14:03:53 437.525
ESTCUBE 1 25 Apr 13:59:54 14:03:32 24° 297° (WNW) 14:07:08 437.505/2401.250
AO-7 25 Apr 14:07:37 14:14:50 35° 53° (NE) 14:22:04 .
VELOX 1 25 Apr 14:18:33 14:22:47 44° 291° (WNW) 14:26:58 145.980
Tancredo 1 25 Apr 14:23:02 14:26:08 85° 19° (NNE) 14:29:15 437.200
SO-50 25 Apr 14:29:06 14:33:03 29° 37° (NE) 14:36:59 436.795
ISS 25 Apr 14:34:05 14:37:21 85° 23° (NNE) 14:40:36 437.550
50 SAT 25 Apr 14:37:35 14:40:44 32° 291° (WNW) 14:43:52 437.505
BEESAT 2 25 Apr 14:40:08 14:42:53 18° 113° (ESE) 14:45:40 435.950
BEESAT 3 25 Apr 14:43:05 14:46:50 45° 121° (ESE) 14:50:41 437.485
ITAMSAT 1 25 Apr 14:43:07 14:47:51 37° 65° (ENE) 14:52:35 435.822/435.867
UKube-1 25 Apr 14:44:26 14:48:47 81° 285° (WNW) 14:53:05 .
Gurwin Techsat 1B 25 Apr 14:50:17 14:55:15 40° 263° (W) 15:00:16 435.225
YUBILEINY 25 Apr 14:51:19 14:59:07 34° 65° (ENE) 15:06:54 435.215
Oscar 19 25 Apr 15:00:55 15:04:42 20° 269° (W) 15:08:31 437.125/150
AO-85 25 Apr 15:02:23 15:06:06 31° 318° (NW) 15:09:43 145.980
BEESAT 25 Apr 15:07:01 15:10:16 18° 91° (E) 15:13:30 436.000
MOZHAYETS 4 25 Apr 15:14:21 15:14:54 10° 85° (E) 15:15:27
DX 1 25 Apr 15:15:04 15:18:54 30° 294° (WNW) 15:22:42 434.975-435.025
